When you browse on this site, cookies collect data to enhance your experience and personalize the content and advertising you see.
Visit our Privacy Policy to learn more. By continuing to use the site, you agree to this use of cookies and data.
  • In Hungary
  • List of Countries
  • For 7 days
  • Water Temperature
  • Satellite Maps
  • Weather Map
  • News
  • Weather Widgets
  • user-avatar
    Login

    Hourly Weather Bracknell

    Today, 23 February, Saturday

    Time Temperature Precipitation Wind Pressure Humidity
    00:00 +6°C° 0 mm 2 mps 768 mmHg 85%
    01:00 +5°C° 0 mm 3 mps 768 mmHg 87%
    02:00 +5°C° 0 mm 3 mps 767 mmHg 90%
    03:00 +7°C° 0 mm 3 mps 767 mmHg 92%
    04:00 +5°C° 0 mm 3 mps 767 mmHg 93%
    05:00 +5°C° 0 mm 3 mps 767 mmHg 94%
    06:00 +6°C° 0 mm 2 mps 767 mmHg 95%
    07:00 +7°C° 0 mm 2 mps 767 mmHg 93%
    08:00 +8°C° 0 mm 3 mps 767 mmHg 91%
    09:00 +9°C° 0 mm 3 mps 767 mmHg 89%
    10:00 +10°C° 0 mm 4 mps 767 mmHg 83%
    11:00 +12°C° 0 mm 4 mps 768 mmHg 77%
    12:00 +13°C° 0 mm 3 mps 768 mmHg 72%
    13:00 +14°C° 0 mm 3 mps 767 mmHg 71%
    14:00 +14°C° 0 mm 3 mps 767 mmHg 69%
    15:00 +14°C° 0 mm 3 mps 767 mmHg 67%
    16:00 +12°C° 0 mm 3 mps 767 mmHg 73%
    17:00 +12°C° 0 mm 2 mps 767 mmHg 78%
    18:00 +9°C° 0 mm 2 mps 767 mmHg 83%
    19:00 +8°C° 0 mm 2 mps 767 mmHg 84%
    20:00 +9°C° 0 mm 1 mps 767 mmHg 85%
    21:00 +8°C° 0 mm 1 mps 768 mmHg 86%
    22:00 +8°C° 0 mm 1 mps 768 mmHg 85%
    23:00 +8°C° 0 mm 1 mps 768 mmHg 84%

    Tomorrow, 24 February, Sunday

    Time Temperature Precipitation Wind Pressure Humidity
    00:00 +8°C° 0 mm 1 mps 768 mmHg 83%
    01:00 +8°C° 0 mm 1 mps 768 mmHg 84%
    02:00 +8°C° 0 mm 1 mps 768 mmHg 86%
    03:00 +7°C° 0 mm 1 mps 768 mmHg 87%
    04:00 +7°C° 0 mm 1 mps 768 mmHg 88%
    05:00 +7°C° 0 mm 1 mps 768 mmHg 88%
    06:00 +7°C° 0 mm 1 mps 768 mmHg 89%
    07:00 +6°C° 0 mm 2 mps 769 mmHg 86%
    08:00 +7°C° 0 mm 2 mps 769 mmHg 83%
    09:00 +8°C° 0 mm 2 mps 769 mmHg 80%
    10:00 +9°C° 0 mm 2 mps 769 mmHg 72%
    11:00 +12°C° 0 mm 2 mps 769 mmHg 64%
    12:00 +13°C° 0 mm 2 mps 770 mmHg 56%
    13:00 +14°C° 0 mm 2 mps 770 mmHg 53%
    14:00 +14°C° 0 mm 2 mps 769 mmHg 51%
    15:00 +15°C° 0 mm 2 mps 769 mmHg 49%
    16:00 +13°C° 0 mm 2 mps 769 mmHg 54%
    17:00 +10°C° 0 mm 2 mps 769 mmHg 59%
    18:00 +8°C° 0 mm 2 mps 769 mmHg 64%
    19:00 +8°C° 0 mm 2 mps 770 mmHg 63%
    20:00 +8°C° 0 mm 1 mps 770 mmHg 62%
    21:00 +7°C° 0 mm 1 mps 770 mmHg 61%
    22:00 +7°C° 0 mm 1 mps 770 mmHg 60%
    23:00 +6°C° 0 mm 2 mps 770 mmHg 60%

    Day after tomorrow, 25 February, Monday

    Time Temperature Precipitation Wind Pressure Humidity
    00:00 +5°C° 0 mm 2 mps 770 mmHg 60%
    01:00 +5°C° 0 mm 2 mps 770 mmHg 62%
    02:00 +6°C° 0 mm 1 mps 770 mmHg 64%
    03:00 +6°C° 0 mm 1 mps 770 mmHg 66%
    04:00 +6°C° 0 mm 1 mps 770 mmHg 68%
    05:00 +6°C° 0 mm 1 mps 770 mmHg 69%
    06:00 +5°C° 0 mm 1 mps 770 mmHg 70%
    07:00 +6°C° 0 mm 1 mps 770 mmHg 68%
    08:00 +6°C° 0 mm 2 mps 770 mmHg 66%
    09:00 +7°C° 0 mm 2 mps 771 mmHg 64%
    10:00 +9°C° 0 mm 3 mps 771 mmHg 60%
    11:00 +11°C° 0 mm 3 mps 770 mmHg 56%
    12:00 +13°C° 0 mm 3 mps 770 mmHg 52%
    13:00 +13°C° 0 mm 3 mps 770 mmHg 52%
    14:00 +14°C° 0 mm 3 mps 770 mmHg 52%
    15:00 +15°C° 0 mm 2 mps 770 mmHg 52%
    16:00 +14°C° 0 mm 2 mps 770 mmHg 57%
    17:00 +12°C° 0 mm 2 mps 770 mmHg 62%
    18:00 +10°C° 0 mm 1 mps 770 mmHg 66%
    19:00 +10°C° 0 mm 1 mps 770 mmHg 66%
    20:00 +8°C° 0 mm 2 mps 769 mmHg 66%
    21:00 +8°C° 0 mm 2 mps 769 mmHg 66%
    22:00 +7°C° 0 mm 2 mps 769 mmHg 67%
    23:00 +7°C° 0 mm 2 mps 769 mmHg 68%

    26 February, Tuesday

    Time Temperature Precipitation Wind Pressure Humidity
    00:00 +7°C° 0 mm 2 mps 769 mmHg 69%
    01:00 +7°C° 0 mm 2 mps 769 mmHg 71%
    02:00 +6°C° 0 mm 2 mps 769 mmHg 73%
    03:00 +6°C° 0 mm 2 mps 769 mmHg 75%
    04:00 +7°C° 0 mm 1 mps 769 mmHg 77%
    05:00 +7°C° 0 mm 1 mps 768 mmHg 79%
    06:00 +7°C° 0 mm 1 mps 768 mmHg 81%
    07:00 +8°C° 0 mm 1 mps 768 mmHg 78%
    08:00 +9°C° 0 mm 1 mps 769 mmHg 76%
    09:00 +10°C° 0 mm 1 mps 769 mmHg 73%
    10:00 +10°C° 0 mm 2 mps 769 mmHg 68%
    11:00 +13°C° 0 mm 2 mps 769 mmHg 63%
    12:00 +15°C° 0 mm 2 mps 769 mmHg 58%
    13:00 +14°C° 0 mm 3 mps 768 mmHg 58%
    14:00 +16°C° 0 mm 3 mps 768 mmHg 58%
    15:00 +16°C° 0 mm 3 mps 767 mmHg 58%
    16:00 +14°C° 0 mm 3 mps 767 mmHg 64%
    17:00 +13°C° 0 mm 2 mps 767 mmHg 69%
    18:00 +10°C° 0 mm 2 mps 767 mmHg 75%
    19:00 +10°C° 0 mm 2 mps 767 mmHg 77%
    20:00 +9°C° 0 mm 2 mps 767 mmHg 79%
    21:00 +8°C° 0 mm 3 mps 767 mmHg 81%
    22:00 +8°C° 0 mm 3 mps 766 mmHg 83%
    23:00 +8°C° 0 mm 3 mps 766 mmHg 85%

    27 February, Wednesday

    Time Temperature Precipitation Wind Pressure Humidity
    00:00 +8°C° 0 mm 3 mps 766 mmHg 86%
    01:00 +7°C° 0 mm 3 mps 765 mmHg 88%
    02:00 +7°C° 0 mm 2 mps 765 mmHg 90%
    03:00 +7°C° 0 mm 2 mps 764 mmHg 91%
    04:00 +7°C° 0 mm 2 mps 764 mmHg 92%
    05:00 +7°C° 0 mm 2 mps 764 mmHg 93%
    06:00 +7°C° 0 mm 2 mps 764 mmHg 94%
    07:00 +8°C° 0 mm 3 mps 764 mmHg 92%
    08:00 +9°C° 0 mm 3 mps 764 mmHg 90%
    09:00 +10°C° 0 mm 3 mps 764 mmHg 88%
    10:00 +12°C° 0 mm 3 mps 764 mmHg 82%
    11:00 +13°C° 0 mm 4 mps 764 mmHg 77%
    12:00 +15°C° 0 mm 4 mps 764 mmHg 71%
    13:00 +15°C° 0 mm 4 mps 764 mmHg 69%
    14:00 +15°C° 0 mm 4 mps 763 mmHg 67%
    15:00 +17°C° 0 mm 4 mps 763 mmHg 65%
    16:00 +14°C° 0 mm 4 mps 763 mmHg 72%
    17:00 +13°C° 0 mm 3 mps 763 mmHg 79%
    18:00 +11°C° 0 mm 3 mps 763 mmHg 86%
    19:00 +10°C° 0 mm 3 mps 763 mmHg 88%
    20:00 +10°C° 0 mm 3 mps 763 mmHg 90%
    21:00 +9°C° 0 mm 3 mps 763 mmHg 92%
    22:00 +9°C° 0 mm 3 mps 763 mmHg 92%
    23:00 +8°C° 0 mm 3 mps 763 mmHg 92%

    28 February, Thursday

    Time Temperature Precipitation Wind Pressure Humidity
    00:00 +8°C° 0 mm 3 mps 763 mmHg 92%
    01:00 +8°C° 0 mm 3 mps 764 mmHg 93%
    02:00 +7°C° 0 mm 4 mps 764 mmHg 94%
    03:00 +6°C° 0 mm 4 mps 764 mmHg 95%
    04:00 +7°C° 0 mm 3 mps 764 mmHg 95%
    05:00 +7°C° 0 mm 3 mps 764 mmHg 95%
    06:00 +7°C° 0 mm 3 mps 764 mmHg 95%
    07:00 +8°C° 0 mm 3 mps 765 mmHg 93%
    08:00 +8°C° 0 mm 3 mps 765 mmHg 90%
    09:00 +9°C° 0 mm 3 mps 765 mmHg 88%
    10:00 +10°C° 0 mm 3 mps 766 mmHg 83%
    11:00 +12°C° 0 mm 3 mps 766 mmHg 78%
    12:00 +13°C° 0 mm 3 mps 766 mmHg 74%
    13:00 +13°C° 0 mm 3 mps 766 mmHg 73%
    14:00 +13°C° 0 mm 3 mps 765 mmHg 72%
    15:00 +13°C° 0 mm 3 mps 765 mmHg 71%
    16:00 +13°C° 0 mm 3 mps 765 mmHg 74%
    17:00 +13°C° 0 mm 2 mps 765 mmHg 76%
    18:00 +12°C° 0 mm 2 mps 765 mmHg 79%
    19:00 +12°C° 0 mm 2 mps 765 mmHg 81%
    20:00 +10°C° 0 mm 2 mps 766 mmHg 83%
    21:00 +9°C° 0 mm 2 mps 766 mmHg 86%
    22:00 +9°C° 0 mm 2 mps 766 mmHg 87%
    23:00 +8°C° 0 mm 2 mps 765 mmHg 89%
    Show more